TimeEDT,TemperatureF,Dew PointF,Humidity,Sea Level PressureIn,VisibilityMPH,Wind Direction,Wind SpeedMPH,Gust SpeedMPH,PrecipitationIn,Events,Conditions,WindDirDegrees,DateUTC
12:25 AM,69.8,53.6,56,29.98,10.0,SSW,12.7,20.7,N/A,,Clear,210,2012-09-12 04:25:00
12:45 AM,69.8,53.6,56,29.98,10.0,SSW,13.8,21.9,N/A,,Clear,210,2012-09-12 04:45:00
1:05 AM,69.8,53.6,56,29.98,10.0,SSW,16.1,21.9,N/A,,Clear,210,2012-09-12 05:05:00
1:45 AM,69.8,51.8,53,29.98,10.0,SSW,13.8,19.6,N/A,,Clear,210,2012-09-12 05:45:00
2:05 AM,69.8,51.8,53,29.98,10.0,SSW,12.7,23.0,N/A,,Clear,210,2012-09-12 06:05:00
2:25 AM,69.8,51.8,53,29.98,10.0,SSW,11.5,23.0,N/A,,Clear,210,2012-09-12 06:25:00
2:45 AM,69.8,53.6,56,29.98,10.0,SSW,13.8,23.0,N/A,,Clear,210,2012-09-12 06:45:00
3:05 AM,69.8,53.6,56,29.97,10.0,SSW,12.7,19.6,N/A,,Clear,210,2012-09-12 07:05:00
3:25 AM,69.8,53.6,56,29.97,10.0,SSW,13.8,20.7,N/A,,Clear,200,2012-09-12 07:25:00
3:45 AM,68.0,53.6,60,29.97,10.0,SSW,12.7,19.6,N/A,,Clear,200,2012-09-12 07:45:00
4:05 AM,68.0,53.6,60,29.97,10.0,SSW,12.7,18.4,N/A,,Clear,200,2012-09-12 08:05:00
4:25 AM,68.0,53.6,60,29.97,10.0,SSW,12.7,19.6,N/A,,Clear,200,2012-09-12 08:25:00
4:45 AM,68.0,53.6,60,29.97,10.0,SSW,13.8,18.4,N/A,,Clear,200,2012-09-12 08:45:00
5:05 AM,68.0,55.4,64,29.98,10.0,SSW,12.7,18.4,N/A,,Clear,200,2012-09-12 09:05:00
5:25 AM,69.8,55.4,60,29.98,10.0,SSW,16.1,21.9,N/A,,Clear,210,2012-09-12 09:25:00
5:45 AM,69.8,55.4,60,29.97,10.0,SSW,12.7,23.0,N/A,,Clear,200,2012-09-12 09:45:00
6:25 AM,69.8,55.4,60,29.97,10.0,SSW,11.5,19.6,N/A,,Clear,210,2012-09-12 10:25:00
6:45 AM,69.8,55.4,60,29.98,10.0,SSW,12.7,19.6,N/A,,Clear,210,2012-09-12 10:45:00
7:05 AM,69.8,55.4,60,29.98,10.0,SSW,12.7,19.6,N/A,,Clear,210,2012-09-12 11:05:00
7:25 AM,69.8,55.4,60,29.98,10.0,SSW,12.7,21.9,N/A,,Clear,210,2012-09-12 11:25:00
7:45 AM,69.8,55.4,60,29.98,10.0,SSW,13.8,24.2,N/A,,Clear,210,2012-09-12 11:45:00
8:05 AM,69.8,55.4,60,29.98,10.0,SW,12.7,20.7,N/A,,Clear,220,2012-09-12 12:05:00
8:25 AM,71.6,55.4,57,29.98,10.0,SW,16.1,26.5,N/A,,Clear,230,2012-09-12 12:25:00
8:45 AM,71.6,55.4,57,29.98,10.0,SW,16.1,26.5,N/A,,Clear,230,2012-09-12 12:45:00
9:05 AM,71.6,55.4,57,29.98,10.0,SW,13.8,26.5,N/A,,Clear,230,2012-09-12 13:05:00
9:25 AM,73.4,55.4,53,29.99,10.0,SW,18.4,29.9,N/A,,Clear,230,2012-09-12 13:25:00
9:45 AM,73.4,55.4,53,30.00,10.0,SW,19.6,27.6,N/A,,Clear,230,2012-09-12 13:45:00
10:05 AM,73.4,55.4,53,30.00,10.0,SW,15.0,26.5,N/A,,Clear,230,2012-09-12 14:05:00
10:25 AM,73.4,57.2,57,30.01,10.0,SW,15.0,26.5,N/A,,Clear,230,2012-09-12 14:25:00
10:45 AM,73.4,57.2,57,30.02,10.0,SW,13.8,27.6,N/A,,Clear,230,2012-09-12 14:45:00
11:05 AM,73.4,57.2,57,30.02,10.0,WSW,17.3,26.5,N/A,,Clear,240,2012-09-12 15:05:00
11:25 AM,73.4,57.2,57,30.02,10.0,WSW,19.6,28.8,N/A,,Clear,240,2012-09-12 15:25:00
11:45 AM,73.4,57.2,57,30.02,10.0,WSW,19.6,29.9,N/A,,Clear,240,2012-09-12 15:45:00
12:05 PM,71.6,59.0,64,30.03,10.0,WSW,16.1,25.3,N/A,,Clear,240,2012-09-12 16:05:00
12:25 PM,71.6,59.0,64,30.03,10.0,WSW,17.3,27.6,N/A,,Clear,240,2012-09-12 16:25:00
12:45 PM,73.4,60.8,65,30.03,10.0,WSW,13.8,27.6,N/A,,Clear,240,2012-09-12 16:45:00
1:05 PM,71.6,60.8,69,30.03,10.0,WSW,15.0,25.3,N/A,,Clear,240,2012-09-12 17:05:00
1:25 PM,73.4,60.8,65,30.03,10.0,WSW,15.0,25.3,N/A,,Clear,240,2012-09-12 17:25:00
1:45 PM,71.6,60.8,69,30.03,10.0,WSW,17.3,26.5,N/A,,Clear,240,2012-09-12 17:45:00
2:05 PM,71.6,60.8,69,30.03,10.0,WSW,15.0,23.0,N/A,,Clear,240,2012-09-12 18:05:00
2:25 PM,71.6,60.8,69,30.03,10.0,WSW,17.3,27.6,N/A,,Clear,240,2012-09-12 18:25:00
2:43 PM,71.6,60.4,68,30.03,10.0,WSW,13.8,24.2,N/A,,Clear,240,2012-09-12 18:43:00
2:55 PM,70.7,60.6,70,30.04,10.0,WSW,15.0,25.3,N/A,,Clear,250,2012-09-12 18:55:00
3:15 PM,70.9,61.9,73,30.04,10.0,WSW,13.8,24.2,N/A,,Clear,250,2012-09-12 19:15:00
3:35 PM,70.7,62.2,75,30.05,10.0,WSW,12.7,20.7,N/A,,Clear,250,2012-09-12 19:35:00
3:55 PM,71.1,61.2,71,30.05,10.0,West,10.4,16.1,N/A,,Clear,260,2012-09-12 19:55:00
4:15 PM,71.6,59.7,66,30.05,10.0,West,12.7,23.0,N/A,,Clear,260,2012-09-12 20:15:00
4:35 PM,70.3,59.0,67,30.05,10.0,West,11.5,21.9,N/A,,Clear,260,2012-09-12 20:35:00
4:55 PM,70.3,59.2,68,30.05,10.0,WSW,6.9,-,N/A,,Clear,250,2012-09-12 20:55:00
5:15 PM,70.3,59.9,69,30.05,10.0,West,12.7,17.3,N/A,,Clear,270,2012-09-12 21:15:00
5:55 PM,70.7,59.9,69,30.06,10.0,West,9.2,-,N/A,,Clear,280,2012-09-12 21:55:00
6:15 PM,70.2,59.7,69,30.07,10.0,West,9.2,-,N/A,,Clear,280,2012-09-12 22:15:00
6:35 PM,68.7,48.0,48,30.08,10.0,North,6.9,-,N/A,,Scattered Clouds,350,2012-09-12 22:35:00
6:54 PM,67.3,45.0,45,30.08,10.0,North,4.6,-,N/A,,Scattered Clouds,10,2012-09-12 22:54:00
7:15 PM,67.1,46.0,47,30.09,10.0,North,3.5,-,N/A,,Mostly Cloudy,350,2012-09-12 23:15:00
7:35 PM,67.1,45.7,46,30.10,10.0,NNE,4.6,-,N/A,,Overcast,20,2012-09-12 23:35:00
7:55 PM,66.2,45.3,47,30.10,10.0,North,3.5,-,N/A,,Overcast,10,2012-09-12 23:55:00
8:35 PM,64.4,46.6,52,30.12,10.0,North,3.5,-,N/A,,Overcast,360,2012-09-13 00:35:00
8:55 PM,63.7,44.6,50,30.13,10.0,North,4.6,-,N/A,,Overcast,350,2012-09-13 00:55:00
9:15 PM,61.9,48.6,62,30.13,10.0,North,4.6,-,N/A,,Overcast,10,2012-09-13 01:15:00
9:35 PM,61.2,46.8,59,30.13,10.0,North,4.6,-,N/A,,Overcast,360,2012-09-13 01:35:00
9:55 PM,61.9,46.4,57,30.14,10.0,NNW,3.5,-,N/A,,Scattered Clouds,340,2012-09-13 01:55:00
10:15 PM,60.4,45.9,59,30.15,10.0,NW,3.5,-,N/A,,Clear,320,2012-09-13 02:15:00
10:35 PM,58.8,45.7,62,30.15,10.0,Calm,Calm,-,N/A,,Clear,0,2012-09-13 02:35:00
10:55 PM,58.5,45.5,62,30.16,10.0,Calm,Calm,-,N/A,,Scattered Clouds,0,2012-09-13 02:55:00
11:15 PM,58.5,45.0,61,30.16,10.0,Calm,Calm,-,N/A,,Mostly Cloudy,0,2012-09-13 03:15:00
11:33 PM,58.3,45.0,61,30.17,10.0,Calm,Calm,-,N/A,,Scattered Clouds,0,2012-09-13 03:33:00
11:55 PM,57.4,45.9,65,30.17,10.0,North,4.6,-,N/A,,Mostly Cloudy,360,2012-09-13 03:55:00